Theta_e
312 312 312 312 310 313 313 314 313 314 314 315 313 313 313 314 315 315 318 319 319 319 320 320 320 320 320 323 325 327 332 338 345 342 345 343 341 341 341 343 344 345 344 341
312 313 313 313 314 315 315 315 314 314 314 314 314 315 313 313 313 315 317 318 319 320 320 319 320 320 320 321 324 332 339 342 343 345 345 343 342 344 343 345 345 347 345 346
312 314 315 314 314 315 314 315 315 315 315 315 315 313 313 314 314 315 316 318 319 320 320 320 320 320 320 323 325 327 331 342 344 345 345 349 349 347 345 346 345 346 344 344
314 314 316 316 315 315 315 315 315 316 314 313 312 312 311 313 314 316 316 317 319 320 320 320 320 320 321 323 327 331 338 341 342 341 339 334 330 335 340 343 339 336 336 334
315 316 317 316 315 315 314 315 314 314 313 311 312 311 311 312 316 314 314 316 318 320 319 320 320 320 321 327 330 327 324 322 322 321 321 321 321 322 321 321 321 324 324 323
315 316 316 315 315 315 315 313 309 308 309 311 311 312 313 314 315 314 314 318 320 320 319 320 320 320 323 326 325 324 323 324 325 325 324 322 321 321 321 322 322 322 321 319
315 314 315 316 317 314 312 309 310 312 310 312 312 313 312 313 316 317 318 317 319 320 319 318 318 319 323 325 324 326 328 328 327 325 324 324 323 323 322 321 320 320 320 320
316 316 317 319 319 319 317 311 309 313 311 311 314 316 315 321 319 318 317 317 318 318 318 318 319 321 324 326 327 328 326 325 325 324 323 322 321 320 320 319 318 320 321 322
317 319 321 321 321 319 318 319 313 312 313 315 314 315 316 321 320 318 317 317 318 320 323 325 326 327 326 326 325 324 323 322 321 320 319 319 318 319 320 320 321 322 323 323
317 321 321 321 320 321 321 319 321 316 321 320 317 318 316 323 321 319 317 314 317 318 318 318 320 321 321 321 320 320 319 318 318 318 318 319 319 321 322 322 322 323 323 322
318 319 321 319 319 319 319 321 321 319 321 322 321 319 321 321 320 319 319 319 317 316 317 317 317 317 317 317 317 317 318 318 319 319 319 320 321 321 321 320 319 318 317 315
318 318 321 321 318 318 317 318 319 321 321 318 318 319 320 321 320 320 320 320 318 317 316 317 318 317 317 317 317 317 317 318 318 318 318 317 317 317 317 317 316 314 314 315
317 316 318 318 315 315 318 318 317 317 317 320 319 321 319 320 320 320 319 320 321 321 320 320 317 319 317 317 317 317 317 316 316 316 315 315 314 315 315 314 313 313 313 313
315 315 315 316 316 315 316 316 316 316 319 320 322 322 320 319 319 319 320 321 319 318 319 320 318 317 316 316 316 316 316 315 315 315 315 315 315 315 315 315 314 313 313 312
311 314 315 315 314 314 314 314 313 315 315 318 316 319 318 316 315 315 318 319 320 319 317 318 317 316 315 315 315 315 315 315 315 315 316 316 315 315 315 315 314 313 313 313
311 312 312 314 313 313 313 313 315 315 315 314 315 316 313 315 316 316 316 316 315 313 313 313 314 313 313 313 313 312 313 313 314 314 313 313 313 312 313 314 314 314 314 313
312 313 311 312 312 312 311 311 311 315 314 314 314 313 313 313 312 310 310 310 310 309 309 309 309 309 309 309 309 310 310 310 309 310 310 310 309 309 309 310 311 311 311 310
311 313 312 314 309 312 309 314 317 318 318 316 315 313 312 310 309 309 309 309 309 309 309 308 308 308 308 308 308 308 308 308 308 308 308 307 307 308 309 310 310 310 310 310
307 311 314 313 312 311 313 317 316 317 318 316 315 313 314 314 310 309 308 308 308 308 308 308 308 308 308 308 308 308 307 307 307 307 307 307 307 307 307 308 308 308 309 309
310 312 313 313 309 313 318 316 316 315 317 313 315 314 310 309 309 307 308 308 308 308 307 308 308 307 307 306 306 306 306 305 305 304 304 304 304 303 303 303 303 303 303 304
314 313 313 313 314 311 314 313 315 318 312 312 309 308 308 307 306 308 307 307 307 307 307 306 306 305 305 305 304 303 303 303 303 302 302 302 302 301 301 300 300 300 300 301
313 315 314 314 315 312 311 314 316 313 312 311 310 307 307 307 307 306 306 306 306 305 304 303 302 302 302 302 302 301 301 301 301 301 300 300 299 298 297 296 297 297 298 298
312 314 314 315 311 311 312 314 312 311 311 311 309 307 306 306 305 305 305 304 303 302 302 301 301 301 301 300 299 300 301 299 297 297 296 296 296 296 296 296 296 297 297 298
309 311 314 311 312 313 311 311 311 310 310 309 306 305 305 304 303 303 302 302 301 301 301 300 299 299 299 300 299 297 296 296 295 296 297 297 296 296 296 295 297 297 297 298
309 308 310 310 312 312 311 311 310 309 308 304 304 304 304 302 302 301 301 300 300 299 299 298 298 297 296 296 296 296 296 296 296 296 296 296 296 296 296 296 296 296 297 298
309 311 312 309 310 309 307 304 305 304 304 304 303 303 302 301 300 300 299 298 297 297 296 295 294 293 295 295 295 296 296 295 294 295 297 298 297 297 296 296 298 298 297 297
Wind_Speed
9 4 8 8 7 2 3 4 5 6 10 5 7 6 10 14 11 16 29 29 25 23 27 28 26 27 21 15 22 25 26 33 35 35 32 26 24 23 23 21 22 21 25 27
2 6 11 7 5 5 6 4 6 8 6 3 7 7 8 6 8 24 30 28 25 24 20 28 26 25 20 20 20 23 26 29 28 30 25 25 23 24 21 19 21 21 24 24
7 9 3 4 8 6 6 4 6 7 7 3 2 6 6 5 5 11 21 20 21 26 24 29 27 24 21 25 26 26 29 30 29 27 24 21 16 18 24 26 27 27 25 24
6 9 10 5 7 7 6 8 10 7 3 3 3 4 5 6 7 2 2 10 21 23 25 31 30 27 25 26 29 30 30 28 26 25 23 22 23 25 26 25 25 23 26 26
7 2 2 3 5 5 10 6 10 6 4 5 2 4 7 6 7 7 5 9 15 25 28 35 35 33 31 32 33 30 29 28 27 25 26 25 23 20 16 16 16 16 18 20
7 4 3 5 5 4 6 2 7 5 3 1 5 5 5 3 4 7 7 20 24 22 24 31 36 32 36 35 32 32 31 30 29 26 24 20 16 14 14 14 17 19 21 22
5 5 4 5 4 4 5 6 2 3 2 5 3 3 7 7 5 3 4 11 14 16 19 25 31 34 34 35 34 31 30 27 22 18 15 13 12 11 12 14 18 19 17 15
5 5 6 2 3 3 1 5 5 4 3 4 4 3 4 4 4 6 15 19 13 6 7 18 24 35 34 32 29 27 23 20 16 13 9 8 9 13 15 18 21 19 18 18
4 4 1 4 2 4 3 2 4 5 3 2 3 5 5 5 7 6 11 30 32 26 22 30 31 30 30 27 21 17 14 11 9 7 8 11 14 15 16 17 18 18 18 17
4 2 3 2 2 3 2 6 3 3 2 2 4 3 4 2 3 3 5 10 26 26 22 21 21 18 17 17 14 12 9 8 9 10 12 13 15 15 14 15 15 17 18 20
3 3 4 2 3 2 5 3 5 3 3 4 3 5 3 4 3 5 4 7 14 18 20 15 11 10 8 7 6 6 8 11 12 13 15 16 15 15 15 17 19 22 24 26
2 3 2 4 2 5 1 3 3 4 4 3 3 5 1 3 3 2 4 6 10 12 10 9 7 4 5 6 9 10 11 11 12 14 17 17 19 21 23 23 24 27 29 29
3 1 1 6 4 5 5 3 4 4 3 4 4 5 2 2 4 6 9 11 4 3 5 5 9 10 11 13 12 11 10 13 16 17 17 18 18 19 22 25 26 29 30 32
2 2 4 5 1 1 2 1 2 4 3 3 8 6 7 6 7 8 15 17 17 14 10 9 7 12 12 11 11 11 14 15 16 18 21 22 23 25 26 29 31 32 33 32
4 2 1 2 4 3 4 7 7 8 8 9 7 14 13 9 9 15 22 16 14 20 12 8 11 13 10 10 12 14 16 16 15 17 20 24 26 28 31 34 35 35 36 35
2 0 3 3 4 7 8 8 12 15 15 15 17 19 8 21 21 13 11 8 6 9 9 9 5 1 2 4 6 9 11 15 17 20 23 26 29 33 34 35 37 37 38 37
1 3 2 3 1 5 7 8 8 5 9 7 12 9 4 3 4 10 13 15 13 9 7 6 5 6 8 10 14 17 19 20 23 27 31 34 36 38 40 41 41 42 43 41
3 4 2 2 4 3 6 5 3 5 8 7 4 4 6 6 12 13 11 10 9 6 5 7 9 11 13 16 19 22 25 28 31 34 37 38 38 40 40 39 39 39 37 41
5 4 2 2 3 7 6 4 3 3 3 6 9 6 2 7 8 1 8 7 5 7 9 11 13 17 21 25 28 32 33 34 35 36 34 32 32 34 35 35 35 35 37 40
8 5 3 3 2 4 2 10 17 1 2 5 1 5 6 1 3 3 6 8 11 14 16 21 24 26 28 28 28 29 33 35 37 38 42 44 46 49 52 52 52 51 50 48
3 2 7 6 3 6 5 13 8 4 2 5 7 1 2 0 3 7 10 13 16 19 23 25 27 28 28 28 31 36 41 45 48 51 53 55 56 55 54 52 46 42 40 40
3 2 2 3 4 6 3 8 2 1 10 10 9 7 4 5 9 11 14 17 21 20 18 21 25 29 33 36 41 45 48 50 49 50 50 48 44 42 40 36 36 35 34 34
2 3 1 4 4 2 3 8 5 4 6 10 13 8 11 13 13 15 19 18 18 21 27 31 36 41 43 44 45 47 47 44 43 41 40 39 39 37 34 32 30 31 31 29
3 2 2 1 1 3 8 7 8 8 7 11 8 9 12 13 15 17 20 23 27 31 36 39 41 44 47 45 42 40 38 35 35 36 36 35 35 34 32 29 29 30 32 30
6 2 2 4 2 2 10 9 11 6 5 7 9 13 13 16 20 22 25 30 33 37 40 41 42 41 41 39 36 32 31 30 32 32 33 34 34 33 33 32 30 27 29 31
2 2 2 4 3 3 1 5 6 3 7 11 13 15 17 19 21 26 32 35 36 39 39 37 35 35 34 32 31 29 27 26 28 31 32 32 32 32 31 31 31 26 25 27
Wind_Direction
187 152 221 236 222 170 220 237 247 273 271 258 236 237 241 249 227 247 243 246 240 233 229 216 219 230 237 228 214 215 216 225 225 226 227 227 243 249 251 259 271 271 267 269
350 232 229 230 232 215 208 241 259 274 273 161 301 299 274 260 230 216 229 237 243 243 250 220 214 226 231 227 221 202 206 217 224 225 234 237 255 255 259 269 270 275 280 279
190 238 20 191 265 249 247 205 256 212 321 268 302 309 331 312 257 242 234 239 237 252 237 212 213 222 226 220 213 203 196 200 213 219 226 230 228 241 248 256 264 264 270 275
220 269 252 241 245 188 271 229 240 262 128 253 62 274 304 332 327 20 252 259 240 236 226 214 217 220 226 216 205 194 188 191 197 204 211 223 233 240 245 253 262 270 277 281
231 264 171 280 228 160 242 281 201 236 187 117 314 83 272 335 317 300 297 252 253 252 234 220 218 223 217 200 186 185 185 188 194 199 206 211 214 222 237 257 268 277 282 285
242 249 229 236 265 227 265 115 47 47 92 62 234 140 284 242 258 314 317 312 302 285 248 240 239 223 201 188 186 182 180 181 183 188 192 200 207 223 240 256 268 276 285 295
296 260 218 226 276 33 73 51 310 325 345 215 130 93 233 292 304 277 283 349 331 292 262 239 234 213 195 184 180 179 177 173 179 188 197 208 221 242 261 274 292 296 294 300
201 316 182 164 191 199 154 146 149 221 222 272 321 235 246 294 81 67 79 74 54 32 208 190 190 185 179 174 173 175 181 182 184 195 214 250 278 283 284 293 299 295 295 302
196 254 357 67 298 162 185 98 185 104 16 73 258 289 315 3 44 35 75 85 82 80 101 122 132 138 143 149 154 164 171 180 196 223 257 275 283 278 275 280 282 284 284 287
204 287 4 346 1 13 136 165 87 10 170 255 292 264 231 249 135 52 42 81 105 107 100 96 107 121 131 137 148 163 182 207 228 243 258 264 264 261 262 267 271 276 284 293
11 104 275 27 33 59 358 357 62 95 155 160 266 261 276 222 191 141 98 87 108 118 122 123 123 133 145 158 179 215 227 233 235 241 247 249 255 261 269 275 281 288 294 298
13 110 264 258 264 212 94 97 99 146 215 231 196 256 320 55 309 353 294 134 108 117 123 135 145 168 203 226 229 238 233 237 249 256 259 267 276 282 282 283 288 290 292 292
343 28 43 335 4 23 61 48 89 68 66 226 184 257 206 215 295 311 312 303 233 227 202 239 200 230 214 212 208 212 244 265 273 275 278 284 288 282 278 283 287 290 292 293
81 84 169 194 195 167 293 252 203 163 182 230 240 297 283 269 271 264 253 279 296 310 290 254 231 221 212 219 236 252 264 272 274 278 284 282 275 273 276 283 283 286 288 289
75 166 332 285 302 293 257 288 288 210 221 224 223 229 243 258 262 259 275 260 254 275 279 264 236 232 246 244 252 261 271 273 271 265 258 264 275 279 281 278 281 282 280 278
352 244 20 288 273 277 284 277 253 256 255 249 245 254 239 250 265 264 269 245 121 94 85 80 132 152 316 318 306 295 286 277 276 275 275 278 280 282 282 282 281 278 275 278
137 114 36 267 59 330 295 247 250 261 231 219 233 242 218 238 101 117 111 112 102 84 59 41 12 338 320 306 299 295 291 290 289 288 287 286 286 286 285 284 282 279 280 281
168 116 148 285 350 235 239 307 99 50 20 17 76 111 102 114 108 94 85 80 74 58 22 351 329 316 303 293 291 296 299 297 295 293 292 292 289 283 280 280 278 277 279 279
171 134 197 221 245 297 322 7 32 357 312 9 359 356 78 124 167 52 59 56 24 345 328 322 312 305 302 302 301 298 297 296 295 294 295 291 287 286 286 285 284 282 278 273
169 154 175 175 175 248 36 349 346 254 245 21 353 311 295 206 182 237 348 340 329 326 318 311 311 307 305 302 300 297 296 293 294 296 295 294 293 293 291 289 287 284 280 277
153 184 214 209 216 282 8 334 329 211 246 360 17 276 31 16 236 301 310 313 311 308 308 305 301 299 299 299 299 298 298 300 301 300 298 295 293 292 291 291 289 286 283 283
208 216 196 190 214 257 10 357 318 270 291 329 333 320 299 283 287 297 306 306 309 308 303 300 300 299 298 299 301 300 301 301 299 298 297 297 296 296 295 291 288 286 286 283
224 214 209 221 225 248 219 244 219 222 272 294 313 297 303 304 309 310 310 310 305 306 307 307 306 305 304 304 305 304 304 304 304 302 300 301 302 302 301 298 293 283 282 283
319 195 216 151 231 213 197 203 237 228 267 290 289 302 305 310 313 310 309 308 308 308 307 308 308 307 306 306 306 305 305 305 304 302 303 304 303 303 300 288 279 276 275 278
226 297 268 263 257 199 243 260 276 289 272 312 316 317 312 311 310 310 309 308 307 307 308 309 308 308 306 308 307 309 311 310 305 305 307 309 309 307 305 302 297 285 276 274
213 191 173 243 288 249 351 57 28 335 323 320 317 310 309 308 310 310 307 307 307 309 309 310 308 306 308 310 311 313 313 311 309 308 309 311 311 311 309 307 306 300 288 276